| time (UTC) | temp C | wind direction | speed KPH | gust KPH | rain 1hr cm | rain 24hr cm | rain mn cm | humidity % | barometer mb |
| 20260507091918 | 1 | 118 | 1.6 | 3.2 | 0.00 | 0.00 | 0.00 | 94 | 1011.8 |
| 20260507091414 | 1 | 102 | 3.2 | 3.2 | 0.00 | 0.00 | 0.00 | 95 | 1011.6 |
| 20260507090910 | 1 | 99 | 3.2 | 4.8 | 0.00 | 0.00 | 0.00 | 95 | 1011.6 |
| 20260507090406 | 1 | 126 | 4.8 | 4.8 | 0.00 | 0.00 | 0.00 | 95 | 1011.7 |
| 20260507085903 | 1 | 110 | 4.8 | 4.8 | 0.00 | 0.00 | 0.00 | 95 | 1011.8 |
| 20260507085400 | 1 | 112 | 4.8 | 4.8 | 0.00 | 0.00 | 0.00 | 94 | 1011.6 |
| 20260507084858 | 1 | 117 | 4.8 | 4.8 | 0.00 | 0.00 | 0.00 | 94 | 1011.9 |
| 20260507084354 | 1 | 118 | 3.2 | 4.8 | 0.00 | 0.00 | 0.00 | 94 | 1012.0 |
| 20260507083851 | 1 | 125 | 1.6 | 3.2 | 0.00 | 0.00 | 0.00 | 94 | 1012.2 |
| 20260507083347 | 1 | 136 | 3.2 | 3.2 | 0.00 | 0.00 | 0.00 | 94 | 1011.9 |
| 20260507082844 | 1 | 133 | 3.2 | 3.2 | 0.00 | 0.00 | 0.00 | 93 | 1011.9 |
| 20260507082339 | 1 | 113 | 3.2 | 3.2 | 0.00 | 0.00 | 0.00 | 93 | 1011.9 |
| 20260507081837 | 1 | 113 | 3.2 | 3.2 | 0.00 | 0.00 | 0.00 | 93 | 1011.9 |
| 20260507081332 | 1 | 142 | 1.6 | 3.2 | 0.00 | 0.00 | 0.00 | 93 | 1012.0 |
| 20260507080830 | 2 | 140 | 3.2 | 3.2 | 0.00 | 0.00 | 0.00 | 92 | 1011.9 |
| 20260507080326 | 2 | 121 | 3.2 | 3.2 | 0.00 | 0.00 | 0.00 | 91 | 1011.8 |
| 20260507075821 | 2 | 116 | 3.2 | 3.2 | 0.00 | 0.00 | 0.00 | 91 | 1012.0 |
| 20260507075318 | 2 | 119 | 3.2 | 3.2 | 0.00 | 0.00 | 0.00 | 90 | 1011.8 |
| 20260507074814 | 2 | 122 | 1.6 | 1.6 | 0.00 | 0.00 | 0.00 | 90 | 1012.0 |
| 20260507074312 | 2 | 125 | 1.6 | 1.6 | 0.00 | 0.00 | 0.00 | 90 | 1012.0 |
| 20260507073809 | 2 | 101 | 1.6 | 1.6 | 0.00 | 0.00 | 0.00 | 89 | 1012.3 |
| 20260507073306 | 3 | 97 | 1.6 | 3.2 | 0.00 | 0.00 | 0.00 | 89 | 1012.0 |
| 20260507072803 | 3 | 101 | 0.0 | 1.6 | 0.00 | 0.00 | 0.00 | 89 | 1011.9 |
| 20260507072300 | 3 | 103 | 1.6 | 1.6 | 0.00 | 0.00 | 0.00 | 89 | 1012.0 |
| 20260507071757 | 3 | 102 | 1.6 | 1.6 | 0.00 | 0.00 | 0.00 | 89 | 1012.2 |
| 20260507071254 | 3 | 119 | 1.6 | 1.6 | 0.00 | 0.00 | 0.00 | 88 | 1012.0 |
| 20260507070751 | 3 | 135 | 1.6 | 1.6 | 0.00 | 0.00 | 0.00 | 88 | 1011.8 |
| 20260507070248 | 3 | 106 | 0.0 | 1.6 | 0.00 | 0.00 | 0.00 | 88 | 1011.9 |
| 20260507065744 | 3 | 321 | 1.6 | 1.6 | 0.00 | 0.00 | 0.00 | 88 | 1011.9 |
| 20260507065241 | 3 | 321 | 0.0 | 1.6 | 0.00 | 0.00 | 0.00 | 88 | 1011.9 |
| 20260507064738 | 3 | 321 | 0.0 | 0.0 | 0.00 | 0.00 | 0.00 | 87 | 1012.0 |
| 20260507064237 | 3 | 321 | 0.0 | 0.0 | 0.00 | 0.00 | 0.00 | 88 | 1011.9 |
| 20260507063734 | 3 | 321 | 0.0 | 0.0 | 0.00 | 0.00 | 0.00 | 87 | 1011.8 |
| 20260507063231 | 3 | 321 | 0.0 | 0.0 | 0.00 | 0.00 | 0.00 | 87 | 1012.0 |
| 20260507062728 | 3 | 321 | 0.0 | 0.0 | 0.00 | 0.00 | 0.00 | 86 | 1012.2 |
| 20260507062225 | 4 | 321 | 0.0 | 0.0 | 0.00 | 0.00 | 0.00 | 86 | 1012.2 |
| 20260507061723 | 4 | 321 | 0.0 | 3.2 | 0.00 | 0.00 | 0.00 | 85 | 1012.4 |
| 20260507061221 | 4 | 38 | 0.0 | 1.6 | 0.00 | 0.00 | 0.00 | 85 | 1012.2 |
| 20260507060719 | 4 | 40 | 0.0 | 0.0 | 0.00 | 0.00 | 0.00 | 85 | 1012.0 |
| 20260507060215 | 4 | 40 | 0.0 | 1.6 | 0.00 | 0.00 | 0.00 | 85 | 1012.2 |
| 20260507055711 | 4 | 44 | 0.0 | 0.0 | 0.00 | 0.00 | 0.00 | 85 | 1012.2 |
| 20260507055207 | 4 | 295 | 0.0 | 1.6 | 0.00 | 0.00 | 0.00 | 84 | 1012.2 |
| 20260507054703 | 4 | 295 | 1.6 | 1.6 | 0.00 | 0.00 | 0.00 | 85 | 1012.4 |
| 20260507054200 | 4 | 316 | 0.0 | 3.2 | 0.00 | 0.00 | 0.00 | 85 | 1012.4 |
| 20260507053658 | 4 | 308 | 0.0 | 0.0 | 0.00 | 0.00 | 0.00 | 86 | 1012.2 |
| 20260507053156 | 4 | 346 | 0.0 | 3.2 | 0.00 | 0.00 | 0.00 | 85 | 1012.4 |
| 20260507052654 | 4 | 326 | 1.6 | 3.2 | 0.00 | 0.00 | 0.00 | 84 | 1012.5 |
| 20260507052150 | 4 | 323 | 3.2 | 4.8 | 0.00 | 0.00 | 0.00 | 82 | 1012.3 |
| 20260507051647 | 4 | 339 | 3.2 | 9.7 | 0.00 | 0.00 | 0.00 | 83 | 1012.2 |
| 20260507051144 | 5 | 353 | 1.6 | 4.8 | 0.00 | 0.00 | 0.00 | 83 | 1012.3 |
| 20260507050641 | 5 | 311 | 12.9 | 17.7 | 0.00 | 0.00 | 0.00 | 84 | 1012.4 |
| 20260507050138 | 5 | 308 | 3.2 | 6.4 | 0.00 | 0.00 | 0.00 | 84 | 1012.3 |
| 20260507045635 | 5 | 318 | 1.6 | 4.8 | 0.00 | 0.00 | 0.00 | 86 | 1012.4 |
| 20260507045131 | 5 | 326 | 4.8 | 9.7 | 0.00 | 0.00 | 0.00 | 86 | 1012.3 |
| 20260507044628 | 5 | 306 | 3.2 | 6.4 | 0.00 | 0.00 | 0.00 | 88 | 1012.4 |
| 20260507044125 | 5 | 306 | 1.6 | 9.7 | 0.00 | 0.00 | 0.00 | 88 | 1012.5 |
| 20260507043621 | 5 | 332 | 1.6 | 9.7 | 0.00 | 0.00 | 0.00 | 89 | 1012.5 |
| 20260507043118 | 5 | 341 | 0.0 | 4.8 | 0.00 | 0.00 | 0.00 | 89 | 1012.4 |
| 20260507042614 | 5 | 24 | 1.6 | 9.7 | 0.00 | 0.00 | 0.00 | 90 | 1012.4 |
| 20260507042110 | 5 | 312 | 3.2 | 3.2 | 0.00 | 0.00 | 0.00 | 91 | 1012.3 |
| 20260507041607 | 5 | 328 | 1.6 | 3.2 | 0.00 | 0.00 | 0.00 | 91 | 1012.4 |
| 20260507041103 | 5 | 300 | 1.6 | 3.2 | 0.00 | 0.00 | 0.00 | 91 | 1012.3 |
| 20260507040600 | 5 | 310 | 3.2 | 4.8 | 0.00 | 0.00 | 0.00 | 90 | 1012.4 |
| 20260507040057 | 6 | 277 | 1.6 | 4.8 | 0.00 | 1.93 | 1.93 | 90 | 1012.0 |
| 20260507035553 | 6 | 346 | 1.6 | 11.3 | 0.00 | 1.93 | 1.93 | 90 | 1011.9 |
| 20260507035049 | 6 | 329 | 3.2 | 9.7 | 0.00 | 1.93 | 1.93 | 89 | 1011.6 |
| 20260507034546 | 6 | 324 | 4.8 | 11.3 | 0.00 | 1.93 | 1.93 | 89 | 1011.4 |
| 20260507034044 | 6 | 288 | 6.4 | 9.7 | 0.00 | 1.93 | 1.93 | 89 | 1011.5 |
| 20260507033542 | 6 | 275 | 1.6 | 12.9 | 0.00 | 1.93 | 1.93 | 89 | 1011.5 |
| 20260507033038 | 6 | 221 | 3.2 | 9.7 | 0.00 | 1.93 | 1.93 | 90 | 1011.5 |
| 20260507032535 | 6 | 308 | 6.4 | 9.7 | 0.00 | 1.93 | 1.93 | 91 | 1011.5 |
| 20260507032032 | 6 | 314 | 1.6 | 3.2 | 0.00 | 1.93 | 1.93 | 92 | 1011.7 |
| 20260507031528 | 6 | 318 | 3.2 | 4.8 | 0.00 | 1.93 | 1.93 | 92 | 1011.6 |
| 20260507031025 | 6 | 326 | 0.0 | 0.0 | 0.00 | 1.93 | 1.93 | 93 | 1011.6 |
| 20260507030522 | 6 | 318 | 1.6 | 3.2 | 0.00 | 1.93 | 1.93 | 93 | 1011.5 |
| 20260507030020 | 6 | 295 | 4.8 | 6.4 | 0.00 | 1.93 | 1.93 | 93 | 1011.4 |
| 20260507025516 | 6 | 309 | 4.8 | 6.4 | 0.00 | 1.93 | 1.93 | 93 | 1011.7 |
| 20260507025014 | 6 | 282 | 4.8 | 12.9 | 0.00 | 1.93 | 1.93 | 93 | 1011.8 |
| 20260507024512 | 6 | 308 | 4.8 | 6.4 | 0.00 | 1.93 | 1.93 | 94 | 1011.5 |
| 20260507024008 | 6 | 307 | 6.4 | 9.7 | 0.00 | 1.93 | 1.93 | 95 | 1011.6 |
| 20260507023504 | 6 | 288 | 3.2 | 9.7 | 0.00 | 1.93 | 1.93 | 95 | 1011.4 |
| 20260507023002 | 6 | 308 | 3.2 | 6.4 | 0.00 | 1.93 | 1.93 | 95 | 1011.3 |
| 20260507022458 | 6 | 291 | 6.4 | 6.4 | 0.00 | 1.93 | 1.93 | 95 | 1011.5 |
| 20260507021954 | 6 | 290 | 4.8 | 6.4 | 0.00 | 1.93 | 1.93 | 95 | 1011.4 |
| 20260507021449 | 7 | 304 | 4.8 | 9.7 | 0.00 | 1.93 | 1.93 | 95 | 1011.6 |
| 20260507020947 | 6 | 299 | 8.0 | 14.5 | 0.00 | 1.93 | 1.93 | 96 | 1011.5 |
| 20260507020444 | 7 | 291 | 3.2 | 3.2 | 0.00 | 1.93 | 1.93 | 96 | 1011.6 |
| 20260507015941 | 7 | 302 | 3.2 | 4.8 | 0.00 | 1.93 | 1.93 | 96 | 1011.5 |
| 20260507015439 | 7 | 286 | 0.0 | 0.0 | 0.00 | 1.93 | 1.93 | 96 | 1011.5 |
| 20260507014936 | 7 | 287 | 0.0 | 3.2 | 0.00 | 1.93 | 1.93 | 96 | 1011.8 |
| 20260507014433 | 7 | 238 | 3.2 | 3.2 | 0.00 | 1.93 | 1.93 | 95 | 1011.8 |
| 20260507013929 | 7 | 265 | 0.0 | 0.0 | 0.13 | 1.93 | 1.93 | 95 | 1011.5 |
| 20260507013426 | 7 | 265 | 0.0 | 3.2 | 0.13 | 1.93 | 1.93 | 95 | 1011.7 |
| 20260507012923 | 7 | 240 | 1.6 | 1.6 | 0.00 | 1.91 | 1.91 | 95 | 1011.5 |
| 20260507012420 | 7 | 234 | 0.0 | 3.2 | 0.00 | 1.91 | 1.91 | 94 | 1011.7 |
| 20260507011917 | 7 | 222 | 6.4 | 6.4 | 0.00 | 1.91 | 1.91 | 94 | 1011.4 |
| 20260507011414 | 7 | 234 | 3.2 | 3.2 | 0.00 | 1.91 | 1.91 | 94 | 1011.5 |
| 20260507010913 | 7 | 226 | 3.2 | 4.8 | 0.00 | 1.91 | 1.91 | 94 | 1011.4 |
| 20260507010409 | 7 | 162 | 0.0 | 0.0 | 0.00 | 1.91 | 1.91 | 94 | 1011.1 |
| 20260507005906 | 7 | 162 | 0.0 | 0.0 | 0.00 | 1.91 | 1.91 | 94 | 1011.3 |
| 20260507005403 | 7 | 167 | 0.0 | 1.6 | 0.00 | 1.91 | 1.91 | 93 | 1011.1 |
| 20260507004900 | 7 | 167 | 1.6 | 1.6 | 0.00 | 1.91 | 1.91 | 93 | 1011.2 |
| 20260507004357 | 7 | 167 | 0.0 | 3.2 | 0.00 | 1.91 | 1.91 | 93 | 1011.1 |
| 20260507003854 | 7 | 167 | 0.0 | 1.6 | 0.00 | 1.91 | 1.91 | 93 | 1011.1 |
| 20260507003349 | 7 | 151 | 0.0 | 0.0 | 0.00 | 1.91 | 1.91 | 92 | 1010.9 |
| 20260507002844 | 7 | 151 | 1.6 | 3.2 | 0.00 | 1.91 | 1.91 | 92 | 1011.0 |
| 20260507002341 | 7 | 196 | 1.6 | 1.6 | 0.00 | 1.91 | 1.91 | 92 | 1010.8 |
| 20260507001838 | 7 | 197 | 0.0 | 0.0 | 0.00 | 1.91 | 1.91 | 92 | 1010.8 |
| 20260507001335 | 7 | 197 | 0.0 | 0.0 | 0.00 | 1.91 | 1.91 | 92 | 1010.8 |
| 20260507000831 | 7 | 197 | 0.0 | 0.0 | 0.00 | 1.91 | 1.91 | 92 | 1010.7 |
| 20260507000328 | 7 | 197 | 0.0 | 0.0 | 0.00 | 1.91 | 1.91 | 92 | 1010.6 |
| 20260506235824 | 7 | 197 | 0.0 | 0.0 | 0.00 | 1.91 | 1.91 | 91 | 1010.6 |
| 20260506235320 | 7 | 197 | 0.0 | 1.6 | 0.00 | 1.91 | 1.91 | 91 | 1010.7 |
| 20260506234816 | 7 | 197 | 1.6 | 1.6 | 0.00 | 1.91 | 1.91 | 91 | 1010.6 |
| 20260506234314 | 7 | 197 | 1.6 | 3.2 | 0.00 | 1.91 | 1.91 | 90 | 1010.4 |
| 20260506233812 | 7 | 293 | 0.0 | 0.0 | 0.00 | 1.91 | 1.91 | 89 | 1010.6 |
| 20260506233307 | 7 | 293 | 0.0 | 1.6 | 0.00 | 1.91 | 1.91 | 88 | 1010.3 |
| 20260506232804 | 7 | 292 | 0.0 | 0.0 | 0.00 | 1.91 | 1.91 | 88 | 1010.6 |
| 20260506232300 | 7 | 292 | 0.0 | 0.0 | 0.00 | 1.91 | 1.91 | 88 | 1010.6 |
| 20260506231757 | 7 | 292 | 0.0 | 0.0 | 0.00 | 1.91 | 1.91 | 88 | 1010.7 |
| 20260506231255 | 7 | 292 | 0.0 | 0.0 | 0.00 | 1.91 | 1.91 | 89 | 1010.5 |
| 20260506230752 | 7 | 292 | 0.0 | 1.6 | 0.00 | 1.91 | 1.91 | 89 | 1010.6 |
| 20260506230249 | 7 | 260 | 0.0 | 0.0 | 0.00 | 1.91 | 1.91 | 89 | 1010.3 |
| 20260506225745 | 7 | 246 | 1.6 | 4.8 | 0.00 | 1.91 | 1.91 | 89 | 1010.2 |
| 20260506225242 | 7 | 96 | 0.0 | 1.6 | 0.00 | 1.91 | 1.91 | 89 | 1010.1 |
| 20260506224738 | 7 | 133 | 1.6 | 1.6 | 0.00 | 1.91 | 1.91 | 89 | 1010.1 |
| 20260506224236 | 7 | 109 | 1.6 | 1.6 | 0.00 | 1.91 | 1.91 | 89 | 1010.1 |
| 20260506223732 | 7 | 283 | 0.0 | 0.0 | 0.00 | 1.91 | 1.91 | 90 | 1010.2 |
| 20260506223227 | 7 | 307 | 0.0 | 1.6 | 0.00 | 1.91 | 1.91 | 90 | 1010.2 |
| 20260506222725 | 7 | 298 | 0.0 | 0.0 | 0.00 | 1.91 | 1.91 | 90 | 1010.2 |
| 20260506222220 | 7 | 298 | 0.0 | 1.6 | 0.00 | 1.91 | 1.91 | 90 | 1009.9 |
| 20260506221719 | 7 | 327 | 0.0 | 0.0 | 0.00 | 1.91 | 1.91 | 91 | 1010.0 |
| 20260506221216 | 7 | 291 | 0.0 | 1.6 | 0.00 | 1.91 | 1.91 | 91 | 1009.9 |
| 20260506220714 | 7 | 315 | 0.0 | 1.6 | 0.00 | 1.91 | 1.91 | 91 | 1010.0 |
| 20260506220208 | 7 | 278 | 0.0 | 3.2 | 0.00 | 1.91 | 1.91 | 91 | 1009.7 |
| 20260506215705 | 7 | 314 | 0.0 | 1.6 | 0.00 | 1.91 | 1.91 | 91 | 1010.1 |
| 20260506215200 | 7 | 304 | 0.0 | 3.2 | 0.00 | 1.91 | 1.91 | 91 | 1010.0 |
| 20260506214657 | 7 | 291 | 1.6 | 4.8 | 0.00 | 1.91 | 1.91 | 91 | 1010.3 |
| 20260506214155 | 7 | 293 | 1.6 | 1.6 | 0.00 | 1.91 | 1.91 | 92 | 1010.2 |
| 20260506213653 | 7 | 257 | 0.0 | 4.8 | 0.00 | 1.91 | 1.91 | 91 | 1010.2 |
| 20260506213150 | 7 | 283 | 3.2 | 4.8 | 0.00 | 1.91 | 1.91 | 92 | 1009.7 |
| 20260506212647 | 7 | 317 | 3.2 | 3.2 | 0.00 | 1.91 | 1.91 | 93 | 1010.1 |
| 20260506212142 | 7 | 289 | 6.4 | 6.4 | 0.00 | 1.91 | 1.91 | 93 | 1010.2 |
| 20260506211638 | 7 | 309 | 0.0 | 3.2 | 0.00 | 1.91 | 1.91 | 94 | 1010.0 |
| 20260506211135 | 7 | 311 | 1.6 | 3.2 | 0.00 | 1.91 | 1.91 | 94 | 1010.0 |
| 20260506210632 | 7 | 329 | 3.2 | 3.2 | 0.00 | 1.91 | 1.91 | 94 | 1010.0 |
| 20260506210129 | 7 | 338 | 3.2 | 3.2 | 0.00 | 1.91 | 1.91 | 95 | 1010.1 |
| 20260506205626 | 7 | 330 | 0.0 | 4.8 | 0.00 | 1.91 | 1.91 | 94 | 1010.0 |
| 20260506205126 | 7 | 263 | 1.6 | 6.4 | 0.00 | 1.91 | 1.91 | 94 | 1009.9 |
| 20260506204624 | 7 | 325 | 6.4 | 11.3 | 0.00 | 1.91 | 1.91 | 93 | 1009.9 |
| 20260506204121 | 7 | 310 | 3.2 | 6.4 | 0.00 | 1.91 | 1.91 | 93 | 1010.0 |
| 20260506203619 | 7 | 313 | 0.0 | 4.8 | 0.00 | 1.91 | 1.91 | 93 | 1009.6 |
| 20260506203115 | 7 | 301 | 3.2 | 9.7 | 0.00 | 1.91 | 1.91 | 93 | 1009.5 |
| 20260506202613 | 7 | 308 | 6.4 | 9.7 | 0.00 | 1.91 | 1.91 | 93 | 1009.5 |
| 20260506202109 | 7 | 157 | 0.0 | 3.2 | 0.00 | 1.91 | 1.91 | 94 | 1009.5 |
| 20260506201607 | 7 | 302 | 4.8 | 6.4 | 0.00 | 1.91 | 1.91 | 94 | 1009.4 |
| 20260506201103 | 7 | 334 | 3.2 | 4.8 | 0.00 | 1.91 | 1.91 | 95 | 1009.2 |
| 20260506200559 | 7 | 309 | 1.6 | 9.7 | 0.00 | 1.91 | 1.91 | 94 | 1009.3 |
| 20260506200056 | 7 | 350 | 1.6 | 6.4 | 0.00 | 1.91 | 1.91 | 95 | 1009.4 |
| 20260506195553 | 7 | 339 | 8.0 | 9.7 | 0.00 | 1.91 | 1.91 | 95 | 1009.4 |
| 20260506195049 | 7 | 332 | 1.6 | 3.2 | 0.00 | 1.91 | 1.91 | 95 | 1009.3 |
| 20260506194547 | 7 | 343 | 3.2 | 4.8 | 0.00 | 1.91 | 1.91 | 96 | 1009.4 |
| 20260506194043 | 7 | 323 | 4.8 | 9.7 | 0.00 | 1.91 | 1.91 | 96 | 1009.4 |
| 20260506193541 | 7 | 327 | 4.8 | 9.7 | 0.00 | 1.91 | 1.91 | 96 | 1009.3 |
| 20260506193038 | 7 | 320 | 6.4 | 12.9 | 0.00 | 1.91 | 1.91 | 96 | 1009.1 |
| 20260506192535 | 7 | 349 | 3.2 | 6.4 | 0.00 | 1.91 | 1.91 | 96 | 1009.0 |
| 20260506192031 | 7 | 298 | 6.4 | 9.7 | 0.00 | 1.91 | 1.91 | 96 | 1009.2 |
| 20260506191527 | 7 | 341 | 3.2 | 6.4 | 0.00 | 1.91 | 1.91 | 97 | 1009.2 |
| 20260506191024 | 7 | 271 | 3.2 | 4.8 | 0.00 | 1.91 | 1.91 | 97 | 1009.1 |
| 20260506190521 | 7 | 314 | 3.2 | 4.8 | 0.00 | 1.91 | 1.91 | 97 | 1009.1 |
| 20260506190019 | 7 | 333 | 1.6 | 6.4 | 0.00 | 1.91 | 1.91 | 97 | 1008.8 |
| 20260506185515 | 6 | 272 | 4.8 | 6.4 | 0.00 | 1.91 | 1.91 | 98 | 1008.9 |
| 20260506185011 | 6 | 309 | 3.2 | 11.3 | 0.00 | 1.91 | 1.91 | 98 | 1008.8 |
| 20260506184509 | 6 | 317 | 4.8 | 6.4 | 0.00 | 1.91 | 1.91 | 98 | 1008.6 |
| 20260506184006 | 6 | 302 | 3.2 | 11.3 | 0.00 | 1.91 | 1.91 | 97 | 1008.9 |
| 20260506183501 | 6 | 303 | 3.2 | 9.7 | 0.00 | 1.91 | 1.91 | 98 | 1008.9 |
| 20260506182959 | 7 | 291 | 6.4 | 11.3 | 0.00 | 1.91 | 1.91 | 98 | 1009.0 |
| 20260506182455 | 7 | 348 | 1.6 | 4.8 | 0.00 | 1.91 | 1.91 | 98 | 1008.9 |
| 20260506181953 | 7 | 327 | 3.2 | 9.7 | 0.00 | 1.91 | 1.91 | 98 | 1008.8 |
| 20260506181451 | 6 | 353 | 4.8 | 6.4 | 0.00 | 1.91 | 1.91 | 98 | 1008.9 |
| 20260506180947 | 6 | 309 | 4.8 | 6.4 | 0.00 | 1.91 | 1.91 | 98 | 1008.8 |
| 20260506180444 | 7 | 307 | 3.2 | 6.4 | 0.00 | 1.91 | 1.91 | 98 | 1009.0 |
| 20260506175941 | 7 | 302 | 1.6 | 4.8 | 0.00 | 1.91 | 1.91 | 98 | 1008.6 |
| 20260506175437 | 7 | 336 | 1.6 | 4.8 | 0.00 | 1.91 | 1.91 | 98 | 1008.5 |
| 20260506174934 | 7 | 353 | 0.0 | 4.8 | 0.00 | 1.91 | 1.91 | 98 | 1008.6 |
| 20260506174432 | 7 | 306 | 3.2 | 3.2 | 0.00 | 1.91 | 1.91 | 98 | 1008.3 |
| 20260506173928 | 6 | 302 | 0.0 | 1.6 | 0.00 | 1.91 | 1.91 | 98 | 1008.3 |
| 20260506173426 | 7 | 317 | 1.6 | 6.4 | 0.00 | 1.91 | 1.91 | 98 | 1008.1 |
| 20260506172923 | 7 | 305 | 0.0 | 0.0 | 0.00 | 1.91 | 1.91 | 99 | 1008.1 |
| 20260506172420 | 6 | 318 | 1.6 | 4.8 | 0.00 | 1.91 | 1.91 | 98 | 1008.3 |
| 20260506171916 | 6 | 51 | 0.0 | 6.4 | 0.00 | 1.91 | 1.91 | 98 | 1008.0 |
| 20260506171414 | 6 | 345 | 3.2 | 3.2 | 0.00 | 1.91 | 1.91 | 98 | 1008.1 |
| 20260506170912 | 6 | 35 | 1.6 | 3.2 | 0.00 | 1.91 | 1.91 | 99 | 1008.1 |
| 20260506170408 | 6 | 344 | 1.6 | 9.7 | 0.00 | 1.91 | 1.91 | 98 | 1008.0 |
| 20260506165907 | 7 | 59 | 1.6 | 9.7 | 0.00 | 1.91 | 1.91 | 98 | 1008.0 |
| 20260506165405 | 6 | 359 | 0.0 | 1.6 | 0.00 | 1.91 | 1.91 | 99 | 1008.1 |
| 20260506164900 | 6 | 26 | 0.0 | 1.6 | 0.00 | 1.91 | 1.91 | 99 | 1008.0 |
| 20260506164357 | 6 | 306 | 1.6 | 4.8 | 0.00 | 1.91 | 1.91 | 99 | 1008.0 |
| 20260506163856 | 6 | 352 | 0.0 | 3.2 | 0.00 | 1.91 | 1.91 | 99 | 1008.0 |
| 20260506163355 | 6 | 123 | 1.6 | 3.2 | 0.18 | 1.91 | 1.91 | 99 | 1008.1 |
| 20260506162850 | 6 | 284 | 0.0 | 3.2 | 0.18 | 1.91 | 1.91 | 99 | 1007.9 |
| 20260506162349 | 6 | 65 | 1.6 | 4.8 | 0.00 | 1.88 | 1.88 | 99 | 1008.0 |
| 20260506161846 | 6 | 322 | 0.0 | 3.2 | 0.13 | 1.88 | 1.88 | 99 | 1007.9 |
| 20260506161343 | 6 | 34 | 0.0 | 11.3 | 0.13 | 1.88 | 1.88 | 99 | 1007.9 |
| 20260506160841 | 6 | 248 | 0.0 | 3.2 | 0.18 | 1.85 | 1.85 | 99 | 1007.9 |
| 20260506160337 | 6 | 277 | 0.0 | 3.2 | 0.18 | 1.85 | 1.85 | 99 | 1008.2 |
| 20260506155836 | 6 | 23 | 6.4 | 9.7 | 0.18 | 1.83 | 1.83 | 99 | 1008.1 |
| 20260506155332 | 6 | 327 | 1.6 | 4.8 | 0.18 | 1.83 | 1.83 | 99 | 1008.1 |
| 20260506153444 | 6 | 18 | 1.6 | 4.8 | 0.18 | 1.78 | 1.78 | 99 | 1007.8 |
| 20260506152942 | 6 | 81 | 1.6 | 3.2 | 0.18 | 1.78 | 1.78 | 99 | 1007.8 |
| 20260506152438 | 6 | 324 | 1.6 | 3.2 | 0.13 | 1.75 | 1.75 | 99 | 1007.9 |
| 20260506151937 | 6 | 40 | 0.0 | 4.8 | 0.13 | 1.75 | 1.75 | 99 | 1007.8 |
| 20260506151434 | 5 | 288 | 0.0 | 1.6 | 0.00 | 1.73 | 1.73 | 99 | 1007.8 |
| 20260506150931 | 6 | 266 | 1.6 | 6.4 | 0.18 | 1.73 | 1.73 | 99 | 1007.8 |
| 20260506150427 | 5 | 332 | 0.0 | 1.6 | 0.30 | 1.73 | 1.73 | 99 | 1007.8 |
| 20260506145925 | 5 | 310 | 3.2 | 3.2 | 0.13 | 1.70 | 1.70 | 99 | 1007.8 |
| 20260506145421 | 5 | 321 | 0.0 | 1.6 | 0.00 | 1.68 | 1.68 | 99 | 1008.0 |
| 20260506144918 | 5 | 337 | 0.0 | 0.0 | 0.00 | 1.68 | 1.68 | 99 | 1007.9 |
| 20260506144414 | 5 | 317 | 1.6 | 4.8 | 0.00 | 1.68 | 1.68 | 99 | 1007.5 |
| 20260506143913 | 5 | 61 | 1.6 | 3.2 | 0.18 | 1.68 | 1.68 | 99 | 1007.4 |
| 20260506143410 | 5 | 61 | 1.6 | 3.2 | 0.18 | 1.68 | 1.68 | 99 | 1007.4 |
| 20260506142908 | 5 | 86 | 1.6 | 4.8 | 0.18 | 1.68 | 1.68 | 99 | 1007.4 |
| 20260506142406 | 5 | 337 | 3.2 | 6.4 | 0.00 | 1.65 | 1.65 | 99 | 1007.5 |
| 20260506141904 | 5 | 329 | 3.2 | 9.7 | 0.30 | 1.65 | 1.65 | 99 | 1007.2 |
| 20260506141401 | 5 | 334 | 3.2 | 6.4 | 0.30 | 1.63 | 1.63 | 99 | 1007.2 |
| 20260506140859 | 5 | 333 | 1.6 | 3.2 | 0.13 | 1.60 | 1.60 | 99 | 1007.3 |
| 20260506140356 | 5 | 87 | 0.0 | 1.6 | 0.18 | 1.57 | 1.57 | 99 | 1007.5 |
| 20260506135853 | 5 | 339 | 3.2 | 6.4 | 0.18 | 1.57 | 1.57 | 99 | 1007.4 |
| 20260506135350 | 5 | 91 | 0.0 | 3.2 | 0.00 | 1.55 | 1.55 | 99 | 1007.5 |
| 20260506134846 | 5 | 40 | 3.2 | 4.8 | 0.13 | 1.55 | 1.55 | 99 | 1007.5 |
| 20260506134342 | 5 | 30 | 0.0 | 11.3 | 0.13 | 1.55 | 1.55 | 99 | 1007.3 |
| 20260506133840 | 5 | 252 | 1.6 | 3.2 | 0.00 | 1.52 | 1.52 | 99 | 1007.4 |
| 20260506133336 | 5 | 43 | 0.0 | 1.6 | 0.18 | 1.52 | 1.52 | 99 | 1007.4 |
| 20260506132833 | 5 | 58 | 0.0 | 4.8 | 0.18 | 1.52 | 1.52 | 99 | 1007.5 |
| 20260506132330 | 5 | 10 | 0.0 | 1.6 | 0.18 | 1.50 | 1.50 | 99 | 1007.4 |
| 20260506131828 | 5 | 304 | 3.2 | 9.7 | 0.18 | 1.50 | 1.50 | 99 | 1007.8 |
| 20260506131324 | 5 | 56 | 0.0 | 3.2 | 0.13 | 1.47 | 1.47 | 99 | 1007.7 |
| 20260506130822 | 5 | 65 | 3.2 | 6.4 | 0.30 | 1.47 | 1.47 | 99 | 1007.5 |
| 20260506130318 | 5 | 98 | 1.6 | 3.2 | 0.18 | 1.45 | 1.45 | 99 | 1007.5 |
| 20260506125816 | 5 | 51 | 1.6 | 1.6 | 0.13 | 1.42 | 1.42 | 99 | 1007.9 |
| 20260506125314 | 5 | 318 | 0.0 | 1.6 | 0.30 | 1.42 | 1.42 | 99 | 1007.9 |
| 20260506124812 | 5 | 285 | 1.6 | 4.8 | 0.30 | 1.40 | 1.40 | 99 | 1007.9 |
| 20260506124309 | 5 | 343 | 1.6 | 3.2 | 0.30 | 1.37 | 1.37 | 99 | 1007.5 |
| 20260506123806 | 5 | 320 | 3.2 | 9.7 | 0.30 | 1.35 | 1.35 | 99 | 1007.3 |
| 20260506123305 | 5 | 357 | 3.2 | 9.7 | 0.30 | 1.32 | 1.32 | 99 | 1007.8 |
| 20260506122801 | 5 | 39 | 3.2 | 6.4 | 0.30 | 1.30 | 1.30 | 99 | 1007.2 |
| 20260506122258 | 5 | 329 | 1.6 | 4.8 | 0.30 | 1.27 | 1.27 | 99 | 1007.7 |
| 20260506121757 | 5 | 359 | 3.2 | 4.8 | 0.30 | 1.24 | 1.24 | 99 | 1007.7 |
| 20260506121253 | 5 | 334 | 0.0 | 3.2 | 0.30 | 1.22 | 1.22 | 99 | 1007.5 |
| 20260506120751 | 5 | 86 | 3.2 | 3.2 | 0.36 | 1.19 | 1.19 | 99 | 1007.4 |
| 20260506120248 | 5 | 276 | 1.6 | 12.9 | 0.18 | 1.17 | 1.17 | 99 | 1007.2 |
| 20260506115746 | 5 | 97 | 3.2 | 3.2 | 0.13 | 1.14 | 1.14 | 99 | 1007.1 |
| 20260506115244 | 5 | 61 | 3.2 | 9.7 | 0.43 | 1.14 | 1.14 | 99 | 1007.1 |
| 20260506114741 | 5 | 54 | 6.4 | 6.4 | 0.48 | 1.12 | 1.12 | 99 | 1007.4 |
| 20260506114239 | 5 | 303 | 0.0 | 4.8 | 0.30 | 1.07 | 1.07 | 99 | 1007.0 |
| 20260506113737 | 5 | 356 | 6.4 | 11.3 | 0.30 | 1.04 | 1.04 | 99 | 1007.3 |
| 20260506113234 | 5 | 233 | 1.6 | 3.2 | 0.30 | 1.02 | 1.02 | 98 | 1007.0 |
| 20260506112730 | 6 | 26 | 1.6 | 12.9 | 0.30 | 0.99 | 0.99 | 98 | 1006.7 |
| 20260506112228 | 6 | 70 | 8.0 | 16.1 | 0.30 | 0.97 | 0.97 | 98 | 1007.2 |
| 20260506111725 | 6 | 38 | 0.0 | 6.4 | 0.13 | 0.94 | 0.94 | 98 | 1006.9 |
| 20260506111224 | 6 | 332 | 3.2 | 4.8 | 0.18 | 0.91 | 0.91 | 98 | 1006.8 |
| 20260506110721 | 6 | 36 | 0.0 | 1.6 | 0.13 | 0.89 | 0.89 | 99 | 1006.7 |
| 20260506110218 | 6 | 331 | 6.4 | 6.4 | 0.48 | 0.89 | 0.89 | 99 | 1006.8 |
| 20260506105714 | 6 | 37 | 1.6 | 4.8 | 0.48 | 0.86 | 0.86 | 99 | 1006.7 |
| 20260506105211 | 6 | 146 | 3.2 | 4.8 | 0.30 | 0.81 | 0.81 | 98 | 1006.6 |
| 20260506104709 | 6 | 351 | 3.2 | 6.4 | 0.48 | 0.79 | 0.79 | 98 | 1007.0 |
| 20260506104207 | 7 | 45 | 3.2 | 9.7 | 0.43 | 0.76 | 0.76 | 98 | 1006.8 |
| 20260506103703 | 7 | 54 | 3.2 | 4.8 | 0.43 | 0.71 | 0.71 | 98 | 1007.0 |
| 20260506103200 | 7 | 47 | 1.6 | 3.2 | 0.61 | 0.69 | 0.69 | 98 | 1006.9 |
| 20260506102658 | 7 | 329 | 6.4 | 6.4 | 0.66 | 0.64 | 0.64 | 98 | 1006.8 |
| 20260506102156 | 7 | 305 | 0.0 | 4.8 | 0.66 | 0.58 | 0.58 | 98 | 1007.0 |
| 20260506101652 | 7 | 38 | 0.0 | 1.6 | 0.30 | 0.48 | 0.48 | 98 | 1006.8 |
| 20260506101149 | 7 | 296 | 4.8 | 6.4 | 0.48 | 0.46 | 0.46 | 98 | 1006.8 |
| 20260506100648 | 7 | 14 | 1.6 | 3.2 | 0.30 | 0.43 | 0.43 | 98 | 1006.8 |
| 20260506100145 | 7 | 33 | 0.0 | 1.6 | 0.13 | 0.38 | 0.38 | 98 | 1006.7 |
| 20260506095644 | 7 | 301 | 3.2 | 3.2 | 0.30 | 0.38 | 0.38 | 98 | 1006.8 |
| 20260506095140 | 7 | 76 | 3.2 | 4.8 | 0.30 | 0.36 | 0.36 | 98 | 1006.7 |
| 20260506094637 | 7 | 105 | 1.6 | 4.8 | 0.13 | 0.33 | 0.33 | 98 | 1006.6 |
| 20260506094135 | 7 | 115 | 1.6 | 3.2 | 0.18 | 0.30 | 0.30 | 98 | 1006.8 |
| 20260506093634 | 7 | 57 | 1.6 | 3.2 | 0.18 | 0.30 | 0.30 | 98 | 1006.8 |
| 20260506093130 | 7 | 66 | 0.0 | 3.2 | 0.13 | 0.28 | 0.28 | 98 | 1006.9 |
| 20260506092628 | 7 | 56 | 3.2 | 4.8 | 0.30 | 0.28 | 0.28 | 98 | 1007.1 |
| 20260506092125 | 7 | 351 | 0.0 | 3.2 | 0.18 | 0.25 | 0.25 | 98 | 1007.2 |